Calgary / Springba, Alberta

11:35 AM MST on December 07, 2016 (GMT -0700)
Springbank

Weather History for CYBW - June, 2013

Change the Weather History Date:

Monday, June 3, 2013

  Actual Average Record
Temperature  
Mean Temperature 48 °F -  
Max Temperature 55 °F 59 °F 75 °F (2007)
Min Temperature 42 °F 37 °F 30 °F (2012)
Degree Days  
Heating Degree Days 16    
Moisture  
Dew Point 44 °F    
Average Humidity 88    
Maximum Humidity 100    
Minimum Humidity 62    
Precipitation  
Precipitation 0.28 in - - ()
Sea Level Pressure  
Sea Level Pressure 30.15 in    
Wind  
Wind Speed 9 mph ()    
Max Wind Speed 15 mph    
Max Gust Speed 20 mph    
Visibility 13.6 miles    
Events Rain    
Averages and records for this station are not official NWS values.
T = Trace of Precipitation, MM = Missing Value Source: Averaged Metar Reports

Daily Weather History Graph

Daily Weather History Graph

Search for Another Location

Airport or City:

Trip Planner

Search our weather history database for the weather conditions in past years. The results will help you decide how hot, cold, wet, or windy it might be!

Date:

Astronomy

Jun. 03, 2013 Rise Set
Actual Time 5:26 AM MDT 9:45 PM MDT
Civil Twilight 4:41 AM MDT 10:30 PM MDT
Nautical Twilight 3:34 AM MDT 11:37 PM MDT
Astronomical Twilight 2:08 AM MDT 1:03 AM MDT
Moon 2:56 AM MDT (6/3) 4:54 PM MDT (6/3)
Length of Visible Light 17h 49m
Length of Day
16h 19m
Waning Crescent, 21% of the Moon is Illuminated
Jun 3
Waning Crescent
Jun 8
New
Jun 16
First Quarter
Jun 23
Full
Jun 29
Last Quarter

Hourly Weather History & Observations

Time (MDT) Temp. Windchill Dew Point Humidity Pressure Visibility Wind Dir Wind Speed Gust Speed Precip Events Conditions
5:00 AM 42.8 °F 36.2 °F 42.8 °F 100% 30.02 in 5.0 mi NW 12.7 mph - N/A Rain Rain
6:00 AM 43 °F - 42 °F 94% 30.04 in 5 mi NW 11.5 mph - - Rain Rain
6:00 AM 42.8 °F 37.0 °F 42.8 °F 100% 30.04 in 5.0 mi NW 10.4 mph - N/A Rain Light Rain
7:00 AM 42.8 °F 36.2 °F 42.8 °F 100% 30.05 in 5.0 mi NW 12.7 mph - N/A Rain Light Rain
8:00 AM 42.8 °F 35.4 °F 42.8 °F 100% 30.07 in 4.0 mi NW 15.0 mph - N/A Rain Light Rain
9:00 AM 42.8 °F 36.2 °F 42.8 °F 100% 30.09 in 5.0 mi NW 12.7 mph 19.6 mph N/A Rain Light Rain
10:00 AM 44.6 °F 38.8 °F 44.6 °F 100% 30.11 in 5.0 mi NW 11.5 mph - N/A Rain Light Rain
11:00 AM 46.4 °F 41.9 °F 44.6 °F 93% 30.12 in 6.0 mi NW 9.2 mph - N/A Rain Light Rain
12:00 PM 48 °F - 46 °F 91% 30.13 in 19 mi NW 6.9 mph - - Rain Light Rain
12:00 PM 48.2 °F - 46.4 °F 93% 30.13 in 20.0 mi NW 6.9 mph - N/A Rain Light Rain
12:09 PM 48.2 °F - 46.4 °F 93% 30.13 in 20.0 mi NW 8.1 mph - N/A   Overcast
1:00 PM 51.8 °F - 46.4 °F 82% 30.14 in 20.0 mi West 6.9 mph - N/A   Overcast
1:12 PM 50.0 °F - 44.6 °F 82% 30.14 in 15.0 mi NW 6.9 mph - N/A Rain Light Rain
2:00 PM 53.6 °F - 44.6 °F 72% 30.15 in 20.0 mi NNE 8.1 mph - N/A Rain Light Rain
2:11 PM 53.6 °F - 42.8 °F 67% 30.15 in 20.0 mi North 8.1 mph - N/A   Overcast
3:00 PM 55.4 °F - 42.8 °F 63% 30.15 in 20.0 mi NE 10.4 mph - N/A   Overcast
4:00 PM 53.6 °F - 42.8 °F 67% 30.17 in 25.0 mi ENE 12.7 mph - N/A   Overcast
5:00 PM 53.6 °F - 41.0 °F 62% 30.19 in 25.0 mi NE 8.1 mph - N/A   Overcast
5:56 PM 48.2 °F - 42.8 °F 82% 30.22 in 20.0 mi SE 10.4 mph 18.4 mph N/A Rain Light Rain Showers
6:00 PM 48.2 °F - 44.6 °F 87% 30.23 in 10.0 mi SSE 8.1 mph - N/A Rain Rain Showers
7:00 PM 48.2 °F - 46.4 °F 93% 30.23 in 20.0 mi SW 3.5 mph - N/A Rain Light Rain Showers
7:10 PM 48.2 °F - 46.4 °F 93% 30.23 in 20.0 mi WSW 3.5 mph - N/A   Overcast
8:00 PM 48.2 °F - 46.4 °F 93% 30.23 in 20.0 mi Calm Calm - N/A   Overcast
9:00 PM 46.4 °F 43.5 °F 44.6 °F 93% 30.24 in 25.0 mi WNW 5.8 mph - N/A   Overcast
10:00 PM 44.6 °F 41.4 °F 42.8 °F 93% 30.26 in 15.0 mi West 5.8 mph - N/A   Overcast